Precipitable_Water
0.36 0.25 0.25 0.22 0.26 0.28 0.29 0.27 0.31 0.32 0.30 0.30 0.27 0.26 0.24 0.22 0.22 0.24 0.27 0.30 0.29 0.24 0.23 0.22 0.20 0.20 0.21 0.23 0.25 0.27 0.28 0.27 0.26 0.26 0.28 0.29 0.30 0.32 0.33 0.34 0.34 0.34 0.35 0.38 0.43 0.47 0.51 0.52 0.53 0.52 0.53 0.59 0.63 0.66 0.66 0.64 0.63 0.62 0.63 0.60 0.61 0.60 0.51 0.58 0.56 0.50 0.45 0.41 0.39 0.41 0.39 0.37 0.38 0.40 0.45 0.54 0.62 0.54 0.61 0.55 0.61 0.60 0.63 0.60 0.59 0.63
0.31 0.24 0.26 0.28 0.34 0.34 0.34 0.34 0.31 0.29 0.29 0.26 0.24 0.23 0.22 0.21 0.19 0.22 0.25 0.29 0.30 0.24 0.20 0.21 0.21 0.21 0.21 0.23 0.25 0.27 0.28 0.26 0.26 0.25 0.25 0.27 0.28 0.30 0.31 0.31 0.31 0.33 0.35 0.35 0.37 0.44 0.49 0.54 0.54 0.54 0.50 0.54 0.57 0.61 0.65 0.63 0.63 0.64 0.66 0.65 0.68 0.68 0.56 0.52 0.53 0.53 0.48 0.44 0.40 0.39 0.38 0.39 0.40 0.40 0.37 0.38 0.55 0.55 0.60 0.58 0.60 0.58 0.62 0.59 0.59 0.62
0.22 0.22 0.30 0.36 0.40 0.39 0.37 0.30 0.28 0.26 0.26 0.24 0.21 0.22 0.22 0.21 0.22 0.28 0.26 0.29 0.25 0.24 0.20 0.18 0.17 0.20 0.23 0.26 0.27 0.26 0.28 0.28 0.28 0.27 0.26 0.26 0.27 0.29 0.30 0.31 0.32 0.34 0.33 0.34 0.37 0.42 0.48 0.52 0.56 0.54 0.49 0.51 0.56 0.62 0.63 0.64 0.64 0.64 0.66 0.67 0.67 0.67 0.61 0.56 0.54 0.61 0.51 0.51 0.45 0.45 0.44 0.42 0.41 0.47 0.46 0.49 0.50 0.58 0.61 0.62 0.61 0.59 0.59 0.58 0.59 0.60
0.23 0.28 0.36 0.41 0.38 0.33 0.31 0.28 0.30 0.30 0.27 0.25 0.24 0.19 0.17 0.21 0.19 0.18 0.26 0.31 0.29 0.24 0.21 0.19 0.17 0.19 0.26 0.29 0.27 0.27 0.26 0.26 0.29 0.31 0.32 0.31 0.28 0.30 0.32 0.35 0.36 0.35 0.34 0.32 0.37 0.45 0.49 0.53 0.57 0.55 0.50 0.48 0.54 0.60 0.63 0.65 0.64 0.64 0.67 0.67 0.66 0.66 0.63 0.59 0.52 0.54 0.50 0.52 0.55 0.55 0.53 0.52 0.47 0.48 0.56 0.59 0.63 0.61 0.60 0.56 0.57 0.60 0.58 0.56 0.56 0.61
0.26 0.38 0.42 0.38 0.36 0.33 0.30 0.31 0.29 0.27 0.24 0.26 0.22 0.25 0.23 0.22 0.24 0.20 0.27 0.30 0.32 0.25 0.17 0.15 0.15 0.15 0.18 0.20 0.21 0.22 0.25 0.26 0.27 0.29 0.31 0.33 0.32 0.32 0.33 0.32 0.32 0.33 0.33 0.32 0.44 0.54 0.51 0.50 0.52 0.54 0.51 0.50 0.51 0.55 0.59 0.63 0.65 0.63 0.65 0.68 0.70 0.67 0.62 0.62 0.53 0.56 0.58 0.60 0.67 0.65 0.61 0.64 0.62 0.59 0.49 0.45 0.43 0.43 0.50 0.55 0.58 0.55 0.56 0.57 0.58 0.60
0.28 0.38 0.34 0.34 0.32 0.30 0.29 0.29 0.29 0.27 0.21 0.24 0.30 0.27 0.23 0.24 0.23 0.23 0.21 0.20 0.17 0.17 0.23 0.20 0.12 0.12 0.21 0.20 0.18 0.21 0.23 0.22 0.24 0.25 0.27 0.28 0.31 0.32 0.28 0.27 0.28 0.34 0.40 0.40 0.45 0.52 0.52 0.46 0.48 0.51 0.51 0.50 0.51 0.53 0.57 0.63 0.65 0.63 0.65 0.68 0.73 0.70 0.63 0.60 0.58 0.57 0.61 0.56 0.54 0.48 0.47 0.45 0.45 0.46 0.44 0.39 0.37 0.39 0.45 0.49 0.53 0.57 0.57 0.58 0.58 0.60
0.28 0.36 0.31 0.29 0.27 0.27 0.28 0.28 0.30 0.31 0.22 0.20 0.23 0.30 0.29 0.21 0.21 0.21 0.20 0.16 0.13 0.17 0.28 0.32 0.15 0.13 0.23 0.21 0.22 0.21 0.22 0.22 0.22 0.20 0.20 0.24 0.28 0.26 0.25 0.27 0.30 0.34 0.37 0.41 0.46 0.48 0.50 0.45 0.44 0.46 0.48 0.49 0.49 0.53 0.60 0.63 0.65 0.65 0.64 0.68 0.74 0.67 0.63 0.62 0.58 0.55 0.55 0.59 0.57 0.50 0.48 0.46 0.44 0.43 0.46 0.46 0.47 0.45 0.45 0.51 0.50 0.55 0.58 0.59 0.59 0.61
0.25 0.29 0.27 0.27 0.25 0.25 0.24 0.24 0.23 0.24 0.23 0.20 0.31 0.28 0.26 0.20 0.19 0.20 0.20 0.20 0.19 0.24 0.29 0.28 0.19 0.11 0.10 0.15 0.20 0.25 0.24 0.24 0.24 0.21 0.20 0.20 0.22 0.24 0.27 0.30 0.31 0.33 0.36 0.40 0.40 0.46 0.49 0.48 0.46 0.46 0.47 0.48 0.51 0.55 0.58 0.62 0.66 0.63 0.63 0.67 0.71 0.67 0.63 0.60 0.59 0.56 0.58 0.57 0.56 0.55 0.50 0.52 0.52 0.46 0.45 0.48 0.49 0.47 0.48 0.45 0.48 0.52 0.57 0.59 0.59 0.60
0.29 0.29 0.25 0.23 0.22 0.22 0.22 0.23 0.29 0.30 0.22 0.26 0.33 0.29 0.23 0.20 0.20 0.21 0.21 0.21 0.22 0.22 0.20 0.22 0.26 0.15 0.12 0.14 0.21 0.22 0.20 0.21 0.21 0.24 0.24 0.23 0.25 0.27 0.29 0.31 0.32 0.34 0.37 0.42 0.42 0.42 0.47 0.49 0.48 0.47 0.47 0.50 0.53 0.55 0.57 0.63 0.68 0.65 0.64 0.68 0.70 0.65 0.64 0.61 0.61 0.58 0.54 0.59 0.58 0.55 0.55 0.51 0.53 0.51 0.52 0.53 0.50 0.51 0.48 0.46 0.47 0.45 0.50 0.54 0.58 0.59
0.30 0.26 0.28 0.22 0.21 0.18 0.20 0.23 0.29 0.31 0.22 0.27 0.27 0.26 0.24 0.22 0.22 0.24 0.22 0.21 0.21 0.19 0.16 0.18 0.23 0.19 0.17 0.18 0.22 0.27 0.23 0.19 0.19 0.22 0.29 0.29 0.27 0.29 0.31 0.31 0.33 0.35 0.38 0.42 0.45 0.43 0.46 0.49 0.48 0.49 0.52 0.52 0.53 0.57 0.61 0.71 0.69 0.64 0.64 0.68 0.66 0.63 0.63 0.63 0.59 0.60 0.59 0.56 0.53 0.54 0.54 0.49 0.52 0.52 0.52 0.51 0.49 0.51 0.49 0.48 0.46 0.47 0.46 0.48 0.52 0.55
0.29 0.28 0.28 0.20 0.19 0.24 0.25 0.26 0.28 0.26 0.22 0.33 0.29 0.23 0.21 0.21 0.20 0.22 0.20 0.20 0.19 0.14 0.14 0.16 0.19 0.18 0.12 0.12 0.14 0.22 0.26 0.23 0.21 0.23 0.26 0.31 0.31 0.31 0.32 0.32 0.33 0.34 0.38 0.40 0.43 0.45 0.46 0.48 0.49 0.51 0.52 0.55 0.57 0.63 0.70 0.71 0.65 0.63 0.64 0.65 0.63 0.63 0.64 0.64 0.61 0.60 0.60 0.57 0.55 0.56 0.54 0.51 0.51 0.49 0.49 0.50 0.50 0.50 0.48 0.48 0.47 0.47 0.45 0.47 0.46 0.48
0.18 0.23 0.16 0.15 0.17 0.21 0.24 0.27 0.27 0.23 0.24 0.24 0.21 0.20 0.21 0.21 0.24 0.24 0.23 0.26 0.19 0.15 0.15 0.18 0.20 0.23 0.14 0.11 0.14 0.18 0.25 0.25 0.20 0.19 0.22 0.26 0.30 0.31 0.32 0.32 0.33 0.34 0.35 0.39 0.41 0.45 0.47 0.48 0.49 0.51 0.52 0.58 0.64 0.74 0.70 0.65 0.62 0.61 0.62 0.63 0.62 0.64 0.65 0.65 0.63 0.61 0.61 0.60 0.56 0.58 0.55 0.52 0.53 0.50 0.49 0.49 0.48 0.48 0.48 0.46 0.48 0.49 0.49 0.49 0.48 0.48
0.19 0.19 0.22 0.20 0.21 0.17 0.20 0.17 0.22 0.20 0.21 0.20 0.20 0.20 0.17 0.16 0.19 0.16 0.20 0.17 0.17 0.16 0.21 0.22 0.24 0.23 0.20 0.14 0.17 0.24 0.24 0.22 0.19 0.16 0.22 0.26 0.28 0.29 0.29 0.31 0.31 0.33 0.35 0.37 0.40 0.43 0.48 0.51 0.50 0.51 0.52 0.55 0.64 0.71 0.64 0.59 0.60 0.62 0.63 0.63 0.62 0.63 0.65 0.64 0.63 0.61 0.61 0.59 0.57 0.56 0.54 0.53 0.53 0.51 0.51 0.49 0.50 0.50 0.48 0.50 0.49 0.48 0.47 0.49 0.48 0.49
0.23 0.27 0.25 0.25 0.24 0.23 0.21 0.17 0.19 0.23 0.23 0.21 0.19 0.19 0.17 0.14 0.14 0.12 0.14 0.16 0.16 0.18 0.23 0.24 0.26 0.22 0.24 0.22 0.22 0.19 0.20 0.23 0.22 0.18 0.20 0.27 0.29 0.29 0.29 0.31 0.31 0.31 0.32 0.34 0.38 0.40 0.45 0.51 0.56 0.56 0.48 0.49 0.53 0.61 0.60 0.59 0.59 0.61 0.62 0.64 0.62 0.63 0.65 0.64 0.62 0.60 0.59 0.58 0.59 0.58 0.56 0.54 0.52 0.51 0.50 0.50 0.50 0.50 0.51 0.50 0.49 0.49 0.48 0.47 0.47 0.47
0.17 0.18 0.22 0.26 0.26 0.33 0.26 0.22 0.21 0.21 0.25 0.27 0.26 0.22 0.20 0.21 0.18 0.15 0.16 0.15 0.16 0.17 0.24 0.28 0.24 0.21 0.20 0.19 0.23 0.23 0.23 0.23 0.24 0.22 0.20 0.20 0.23 0.24 0.24 0.24 0.27 0.30 0.31 0.31 0.34 0.37 0.41 0.45 0.52 0.56 0.49 0.48 0.51 0.52 0.59 0.65 0.60 0.60 0.59 0.60 0.60 0.61 0.64 0.62 0.59 0.58 0.58 0.58 0.59 0.58 0.56 0.54 0.53 0.53 0.51 0.50 0.50 0.51 0.50 0.51 0.50 0.50 0.50 0.49 0.50 0.50
0.18 0.17 0.22 0.27 0.29 0.33 0.27 0.25 0.24 0.22 0.21 0.24 0.29 0.29 0.22 0.19 0.23 0.17 0.18 0.18 0.18 0.21 0.19 0.23 0.22 0.24 0.22 0.24 0.26 0.23 0.22 0.20 0.20 0.21 0.22 0.22 0.22 0.22 0.22 0.22 0.22 0.26 0.29 0.31 0.32 0.35 0.40 0.46 0.52 0.55 0.52 0.47 0.49 0.51 0.53 0.60 0.69 0.62 0.58 0.59 0.60 0.60 0.64 0.62 0.59 0.58 0.59 0.59 0.60 0.56 0.55 0.53 0.53 0.52 0.52 0.51 0.50 0.50 0.51 0.51 0.51 0.51 0.52 0.52 0.52 0.53
0.19 0.18 0.22 0.28 0.30 0.28 0.26 0.25 0.25 0.25 0.16 0.21 0.23 0.22 0.25 0.30 0.25 0.23 0.23 0.24 0.23 0.21 0.17 0.19 0.20 0.24 0.26 0.24 0.23 0.23 0.24 0.23 0.22 0.21 0.22 0.23 0.24 0.23 0.21 0.21 0.21 0.21 0.24 0.28 0.30 0.33 0.38 0.42 0.48 0.52 0.50 0.47 0.48 0.50 0.52 0.54 0.69 0.64 0.59 0.57 0.58 0.59 0.64 0.63 0.59 0.57 0.59 0.60 0.58 0.56 0.55 0.53 0.51 0.49 0.48 0.48 0.51 0.51 0.52 0.52 0.51 0.52 0.53 0.55 0.54 0.52
0.15 0.15 0.20 0.22 0.22 0.26 0.26 0.24 0.23 0.23 0.24 0.21 0.17 0.20 0.26 0.28 0.27 0.24 0.17 0.19 0.19 0.16 0.17 0.21 0.18 0.17 0.18 0.16 0.25 0.24 0.23 0.27 0.29 0.27 0.25 0.25 0.24 0.22 0.22 0.23 0.23 0.23 0.24 0.26 0.28 0.30 0.33 0.38 0.45 0.49 0.49 0.47 0.47 0.48 0.51 0.60 0.77 0.71 0.61 0.55 0.55 0.55 0.59 0.61 0.58 0.57 0.58 0.58 0.58 0.56 0.54 0.53 0.53 0.52 0.50 0.51 0.52 0.53 0.52 0.53 0.53 0.53 0.53 0.54 0.56 0.57
0.22 0.16 0.17 0.19 0.18 0.21 0.24 0.25 0.22 0.23 0.24 0.19 0.18 0.23 0.18 0.17 0.17 0.21 0.21 0.15 0.15 0.15 0.16 0.18 0.20 0.19 0.20 0.19 0.24 0.24 0.23 0.26 0.31 0.31 0.29 0.28 0.28 0.25 0.25 0.25 0.26 0.26 0.26 0.26 0.27 0.29 0.32 0.38 0.43 0.45 0.44 0.45 0.46 0.48 0.53 0.61 0.68 0.73 0.63 0.57 0.56 0.54 0.59 0.62 0.61 0.60 0.59 0.59 0.57 0.57 0.55 0.54 0.54 0.53 0.53 0.54 0.54 0.54 0.53 0.52 0.53 0.53 0.53 0.53 0.54 0.53
0.25 0.17 0.17 0.23 0.20 0.22 0.25 0.26 0.20 0.21 0.24 0.26 0.28 0.23 0.23 0.20 0.16 0.13 0.15 0.18 0.19 0.14 0.14 0.13 0.15 0.14 0.17 0.19 0.22 0.25 0.26 0.25 0.29 0.32 0.33 0.33 0.32 0.34 0.31 0.29 0.29 0.28 0.28 0.28 0.29 0.31 0.34 0.37 0.40 0.40 0.42 0.44 0.46 0.49 0.63 0.64 0.66 0.64 0.60 0.56 0.56 0.58 0.62 0.64 0.60 0.59 0.58 0.58 0.57 0.57 0.57 0.57 0.56 0.56 0.56 0.55 0.54 0.53 0.53 0.54 0.54 0.54 0.53 0.53 0.54 0.53
0.22 0.26 0.14 0.18 0.23 0.21 0.18 0.22 0.20 0.21 0.19 0.23 0.24 0.23 0.24 0.23 0.25 0.23 0.23 0.20 0.17 0.18 0.17 0.16 0.15 0.16 0.19 0.22 0.23 0.26 0.28 0.29 0.27 0.28 0.34 0.35 0.34 0.35 0.36 0.36 0.34 0.32 0.31 0.31 0.31 0.33 0.36 0.38 0.38 0.39 0.42 0.44 0.47 0.67 0.71 0.69 0.63 0.60 0.59 0.55 0.55 0.54 0.59 0.60 0.59 0.59 0.58 0.58 0.57 0.56 0.54 0.55 0.55 0.55 0.56 0.56 0.56 0.54 0.54 0.54 0.54 0.53 0.53 0.53 0.51 0.52
0.22 0.22 0.18 0.20 0.20 0.19 0.18 0.23 0.24 0.23 0.24 0.23 0.23 0.23 0.27 0.26 0.24 0.21 0.20 0.24 0.22 0.20 0.16 0.15 0.15 0.18 0.21 0.23 0.24 0.23 0.24 0.27 0.28 0.29 0.28 0.32 0.34 0.34 0.34 0.35 0.37 0.35 0.35 0.36 0.35 0.35 0.37 0.38 0.41 0.42 0.43 0.46 0.49 0.66 0.63 0.64 0.61 0.60 0.56 0.54 0.54 0.56 0.59 0.59 0.58 0.57 0.57 0.56 0.56 0.55 0.55 0.56 0.57 0.57 0.57 0.56 0.56 0.55 0.55 0.55 0.55 0.55 0.53 0.51 0.51 0.52
0.27 0.27 0.24 0.19 0.20 0.21 0.23 0.26 0.27 0.27 0.27 0.25 0.25 0.23 0.25 0.26 0.24 0.20 0.15 0.16 0.21 0.22 0.23 0.21 0.18 0.17 0.23 0.28 0.27 0.28 0.29 0.30 0.30 0.30 0.30 0.31 0.34 0.37 0.38 0.39 0.39 0.38 0.36 0.37 0.38 0.38 0.38 0.39 0.41 0.43 0.44 0.47 0.50 0.60 0.63 0.61 0.59 0.59 0.57 0.54 0.53 0.54 0.57 0.59 0.58 0.57 0.57 0.56 0.56 0.56 0.58 0.58 0.57 0.57 0.56 0.55 0.55 0.54 0.55 0.55 0.55 0.55 0.53 0.52 0.52 0.53
0.28 0.20 0.16 0.15 0.16 0.16 0.17 0.17 0.18 0.19 0.19 0.18 0.19 0.21 0.20 0.19 0.21 0.21 0.20 0.22 0.18 0.20 0.20 0.19 0.17 0.17 0.21 0.27 0.29 0.32 0.31 0.31 0.33 0.33 0.32 0.31 0.32 0.36 0.39 0.40 0.40 0.41 0.38 0.38 0.40 0.42 0.41 0.41 0.42 0.39 0.39 0.46 0.54 0.55 0.60 0.61 0.59 0.58 0.57 0.55 0.56 0.55 0.57 0.58 0.59 0.58 0.57 0.56 0.57 0.58 0.57 0.57 0.57 0.56 0.55 0.54 0.55 0.54 0.56 0.57 0.56 0.56 0.53 0.51 0.51 0.50
0.22 0.21 0.20 0.17 0.15 0.16 0.17 0.18 0.18 0.19 0.19 0.18 0.20 0.21 0.24 0.26 0.29 0.29 0.29 0.29 0.23 0.23 0.22 0.20 0.15 0.16 0.21 0.28 0.29 0.31 0.32 0.31 0.30 0.32 0.36 0.32 0.31 0.33 0.34 0.36 0.39 0.40 0.40 0.40 0.39 0.40 0.41 0.42 0.41 0.41 0.41 0.47 0.48 0.50 0.57 0.55 0.55 0.54 0.55 0.55 0.55 0.56 0.58 0.58 0.60 0.57 0.56 0.56 0.56 0.57 0.56 0.55 0.54 0.53 0.54 0.54 0.54 0.55 0.55 0.56 0.56 0.55 0.52 0.51 0.49 0.50
0.20 0.17 0.15 0.11 0.09 0.07 0.07 0.08 0.09 0.12 0.15 0.20 0.26 0.26 0.28 0.27 0.27 0.27 0.23 0.25 0.21 0.20 0.22 0.22 0.20 0.24 0.26 0.27 0.29 0.33 0.35 0.33 0.35 0.33 0.34 0.37 0.37 0.35 0.37 0.36 0.36 0.39 0.40 0.41 0.41 0.42 0.41 0.42 0.42 0.41 0.41 0.43 0.46 0.48 0.57 0.60 0.56 0.55 0.55 0.53 0.55 0.56 0.57 0.58 0.59 0.57 0.54 0.55 0.55 0.55 0.54 0.53 0.53 0.52 0.53 0.53 0.54 0.54 0.55 0.54 0.54 0.52 0.52 0.51 0.49 0.50
0.18 0.18 0.18 0.17 0.14 0.11 0.12 0.14 0.17 0.21 0.20 0.17 0.19 0.20 0.20 0.22 0.24 0.26 0.25 0.21 0.16 0.17 0.18 0.21 0.23 0.22 0.22 0.24 0.26 0.28 0.31 0.30 0.31 0.32 0.34 0.38 0.40 0.46 0.50 0.40 0.37 0.37 0.39 0.40 0.40 0.42 0.43 0.43 0.42 0.42 0.44 0.45 0.44 0.44 0.52 0.56 0.53 0.53 0.52 0.53 0.54 0.56 0.57 0.57 0.56 0.54 0.52 0.53 0.53 0.52 0.52 0.52 0.52 0.53 0.52 0.52 0.52 0.53 0.52 0.52 0.52 0.51 0.50 0.51 0.50 0.49
0.14 0.13 0.14 0.15 0.14 0.13 0.13 0.13 0.16 0.19 0.17 0.18 0.19 0.18 0.20 0.19 0.19 0.18 0.18 0.15 0.18 0.17 0.13 0.16 0.18 0.19 0.19 0.21 0.21 0.23 0.25 0.27 0.28 0.31 0.32 0.34 0.39 0.42 0.43 0.45 0.51 0.49 0.40 0.41 0.41 0.41 0.42 0.44 0.44 0.45 0.46 0.45 0.45 0.47 0.52 0.54 0.52 0.51 0.51 0.50 0.51 0.54 0.55 0.56 0.54 0.52 0.52 0.52 0.51 0.50 0.50 0.51 0.52 0.52 0.52 0.52 0.52 0.51 0.51 0.51 0.50 0.50 0.50 0.49 0.48 0.48
0.19 0.16 0.18 0.20 0.17 0.18 0.18 0.18 0.19 0.19 0.18 0.17 0.16 0.15 0.15 0.16 0.16 0.16 0.16 0.17 0.17 0.15 0.12 0.14 0.15 0.16 0.16 0.16 0.16 0.16 0.17 0.19 0.21 0.23 0.26 0.32 0.38 0.39 0.40 0.40 0.42 0.48 0.51 0.42 0.44 0.44 0.45 0.45 0.46 0.47 0.47 0.47 0.47 0.50 0.50 0.49 0.49 0.51 0.49 0.49 0.50 0.54 0.55 0.55 0.52 0.52 0.51 0.51 0.50 0.50 0.51 0.52 0.53 0.52 0.51 0.51 0.51 0.50 0.49 0.49 0.49 0.49 0.48 0.48 0.49 0.50
0.25 0.21 0.21 0.21 0.19 0.18 0.17 0.18 0.18 0.17 0.17 0.17 0.15 0.14 0.14 0.15 0.16 0.17 0.18 0.18 0.18 0.16 0.17 0.18 0.17 0.16 0.17 0.16 0.15 0.14 0.16 0.18 0.21 0.21 0.22 0.23 0.27 0.32 0.38 0.39 0.43 0.46 0.46 0.51 0.50 0.44 0.47 0.47 0.46 0.46 0.48 0.48 0.52 0.51 0.48 0.47 0.48 0.48 0.46 0.48 0.51 0.53 0.55 0.53 0.50 0.50 0.48 0.48 0.49 0.51 0.52 0.52 0.52 0.51 0.51 0.50 0.49 0.49 0.48 0.48 0.48 0.48 0.48 0.48 0.49 0.50
0.23 0.19 0.23 0.21 0.17 0.14 0.14 0.15 0.15 0.14 0.14 0.13 0.13 0.13 0.13 0.14 0.15 0.15 0.15 0.15 0.16 0.15 0.17 0.17 0.16 0.15 0.14 0.15 0.15 0.16 0.18 0.21 0.23 0.21 0.20 0.21 0.24 0.29 0.33 0.37 0.40 0.42 0.43 0.45 0.51 0.54 0.49 0.51 0.49 0.48 0.47 0.52 0.55 0.51 0.48 0.46 0.47 0.48 0.47 0.50 0.51 0.52 0.52 0.50 0.48 0.47 0.47 0.47 0.49 0.52 0.51 0.49 0.48 0.49 0.48 0.49 0.48 0.48 0.48 0.48 0.47 0.47 0.47 0.47 0.48 0.48
0.22 0.17 0.18 0.17 0.14 0.12 0.13 0.14 0.14 0.13 0.13 0.12 0.11 0.10 0.11 0.13 0.13 0.13 0.14 0.16 0.15 0.13 0.13 0.14 0.13 0.12 0.13 0.13 0.15 0.19 0.20 0.20 0.19 0.21 0.23 0.24 0.26 0.27 0.27 0.32 0.35 0.39 0.42 0.44 0.45 0.54 0.55 0.53 0.52 0.50 0.50 0.56 0.54 0.49 0.47 0.46 0.45 0.47 0.48 0.50 0.49 0.50 0.49 0.48 0.47 0.46 0.47 0.48 0.49 0.49 0.48 0.48 0.48 0.48 0.48 0.48 0.47 0.48 0.48 0.47 0.46 0.45 0.45 0.45 0.46 0.47
0.21 0.19 0.17 0.16 0.14 0.11 0.11 0.13 0.12 0.12 0.12 0.10 0.08 0.09 0.12 0.12 0.13 0.15 0.15 0.16 0.16 0.17 0.17 0.15 0.14 0.16 0.17 0.20 0.22 0.22 0.22 0.21 0.21 0.21 0.24 0.30 0.32 0.31 0.30 0.30 0.33 0.37 0.40 0.40 0.41 0.45 0.58 0.53 0.51 0.54 0.56 0.54 0.50 0.48 0.48 0.48 0.44 0.45 0.48 0.50 0.48 0.48 0.46 0.46 0.47 0.47 0.47 0.48 0.48 0.47 0.47 0.47 0.47 0.47 0.47 0.46 0.46 0.47 0.47 0.46 0.44 0.43 0.43 0.43 0.45 0.46
0.19 0.17 0.15 0.16 0.13 0.10 0.11 0.13 0.14 0.12 0.08 0.06 0.09 0.14 0.15 0.16 0.18 0.18 0.19 0.21 0.23 0.24 0.21 0.23 0.22 0.22 0.22 0.22 0.22 0.22 0.23 0.24 0.27 0.31 0.34 0.36 0.36 0.37 0.40 0.35 0.35 0.40 0.43 0.41 0.41 0.41 0.54 0.54 0.58 0.56 0.53 0.50 0.50 0.52 0.51 0.50 0.45 0.46 0.48 0.50 0.47 0.45 0.45 0.46 0.46 0.46 0.47 0.47 0.47 0.47 0.47 0.46 0.46 0.45 0.45 0.45 0.45 0.47 0.46 0.45 0.43 0.43 0.44 0.45 0.45 0.45
0.18 0.18 0.17 0.17 0.14 0.11 0.12 0.13 0.12 0.10 0.08 0.10 0.15 0.15 0.16 0.17 0.19 0.19 0.22 0.23 0.25 0.28 0.28 0.27 0.27 0.29 0.27 0.28 0.25 0.26 0.31 0.34 0.36 0.37 0.37 0.38 0.36 0.40 0.48 0.51 0.48 0.43 0.48 0.43 0.44 0.49 0.51 0.55 0.55 0.53 0.51 0.51 0.53 0.52 0.49 0.48 0.47 0.48 0.48 0.48 0.45 0.45 0.45 0.45 0.46 0.46 0.48 0.47 0.46 0.45 0.45 0.45 0.46 0.45 0.44 0.44 0.44 0.45 0.45 0.44 0.43 0.43 0.45 0.45 0.44 0.44
0.19 0.18 0.17 0.17 0.16 0.15 0.13 0.12 0.09 0.09 0.13 0.17 0.18 0.18 0.20 0.21 0.22 0.22 0.21 0.24 0.23 0.22 0.22 0.23 0.23 0.25 0.27 0.30 0.36 0.41 0.39 0.38 0.37 0.37 0.36 0.37 0.37 0.36 0.45 0.56 0.50 0.47 0.44 0.44 0.51 0.54 0.55 0.55 0.55 0.56 0.56 0.56 0.55 0.55 0.52 0.49 0.48 0.48 0.48 0.49 0.46 0.45 0.44 0.44 0.44 0.46 0.48 0.46 0.45 0.44 0.45 0.45 0.45 0.44 0.44 0.44 0.44 0.44 0.43 0.43 0.43 0.43 0.44 0.44 0.44 0.46
0.22 0.20 0.18 0.15 0.17 0.14 0.14 0.14 0.13 0.16 0.15 0.15 0.14 0.16 0.19 0.19 0.21 0.22 0.17 0.18 0.22 0.24 0.25 0.24 0.25 0.29 0.32 0.34 0.32 0.34 0.37 0.34 0.29 0.27 0.30 0.32 0.33 0.41 0.46 0.52 0.55 0.53 0.48 0.56 0.57 0.58 0.60 0.61 0.62 0.62 0.62 0.61 0.59 0.56 0.53 0.51 0.49 0.49 0.48 0.46 0.44 0.43 0.44 0.44 0.44 0.44 0.46 0.44 0.43 0.44 0.45 0.45 0.44 0.43 0.42 0.41 0.42 0.43 0.42 0.42 0.42 0.44 0.45 0.43 0.44 0.45
0.21 0.17 0.17 0.17 0.16 0.18 0.15 0.13 0.14 0.13 0.12 0.14 0.18 0.34 0.32 0.36 0.33 0.32 0.24 0.19 0.20 0.22 0.26 0.30 0.30 0.32 0.34 0.36 0.33 0.33 0.35 0.30 0.24 0.24 0.31 0.40 0.42 0.42 0.55 0.54 0.53 0.52 0.57 0.58 0.57 0.66 0.66 0.64 0.64 0.65 0.62 0.59 0.56 0.54 0.52 0.51 0.50 0.48 0.46 0.43 0.43 0.42 0.43 0.44 0.44 0.45 0.44 0.42 0.42 0.43 0.44 0.44 0.43 0.42 0.41 0.40 0.40 0.41 0.42 0.43 0.44 0.44 0.45 0.43 0.44 0.45
0.18 0.18 0.19 0.18 0.16 0.17 0.16 0.14 0.14 0.13 0.14 0.17 0.21 0.32 0.34 0.38 0.37 0.34 0.25 0.16 0.22 0.31 0.35 0.35 0.33 0.34 0.36 0.36 0.35 0.35 0.31 0.25 0.24 0.29 0.38 0.41 0.48 0.53 0.55 0.54 0.52 0.53 0.61 0.63 0.66 0.64 0.61 0.61 0.60 0.59 0.58 0.55 0.52 0.51 0.50 0.49 0.49 0.46 0.42 0.41 0.41 0.42 0.42 0.43 0.44 0.44 0.41 0.41 0.41 0.42 0.43 0.44 0.43 0.43 0.41 0.40 0.41 0.43 0.42 0.42 0.43 0.44 0.44 0.45 0.46 0.47
0.15 0.17 0.17 0.16 0.16 0.17 0.16 0.14 0.13 0.14 0.13 0.17 0.21 0.28 0.33 0.37 0.38 0.33 0.18 0.14 0.28 0.32 0.37 0.37 0.36 0.36 0.37 0.37 0.37 0.33 0.29 0.24 0.27 0.31 0.40 0.47 0.55 0.57 0.59 0.58 0.61 0.62 0.65 0.63 0.60 0.59 0.60 0.62 0.59 0.55 0.53 0.52 0.50 0.50 0.47 0.48 0.47 0.44 0.42 0.41 0.42 0.42 0.43 0.45 0.45 0.42 0.41 0.40 0.41 0.43 0.44 0.46 0.44 0.43 0.42 0.41 0.40 0.41 0.42 0.43 0.43 0.43 0.43 0.45 0.47 0.48
0.15 0.15 0.15 0.14 0.15 0.16 0.16 0.16 0.18 0.17 0.18 0.22 0.27 0.32 0.31 0.33 0.29 0.17 0.11 0.15 0.30 0.33 0.36 0.38 0.36 0.37 0.35 0.33 0.34 0.29 0.32 0.36 0.37 0.39 0.44 0.50 0.53 0.61 0.63 0.61 0.62 0.62 0.62 0.61 0.59 0.61 0.59 0.59 0.56 0.53 0.53 0.53 0.50 0.49 0.48 0.48 0.46 0.43 0.42 0.42 0.43 0.43 0.45 0.46 0.44 0.41 0.40 0.40 0.41 0.43 0.44 0.43 0.42 0.42 0.43 0.42 0.39 0.38 0.40 0.42 0.42 0.43 0.44 0.45 0.47 0.49
0.15 0.17 0.16 0.16 0.15 0.15 0.15 0.14 0.15 0.16 0.20 0.29 0.36 0.33 0.34 0.26 0.16 0.13 0.20 0.31 0.32 0.33 0.37 0.37 0.35 0.36 0.34 0.32 0.33 0.34 0.35 0.38 0.40 0.42 0.47 0.52 0.56 0.63 0.67 0.62 0.65 0.64 0.63 0.63 0.62 0.59 0.55 0.53 0.54 0.54 0.53 0.52 0.50 0.49 0.49 0.47 0.44 0.42 0.42 0.43 0.43 0.45 0.47 0.43 0.41 0.40 0.40 0.41 0.41 0.40 0.41 0.43 0.44 0.45 0.43 0.41 0.39 0.37 0.37 0.41 0.42 0.44 0.45 0.47 0.48 0.48
0.15 0.14 0.13 0.13 0.15 0.17 0.17 0.13 0.14 0.11 0.23 0.29 0.32 0.29 0.34 0.20 0.21 0.29 0.30 0.32 0.36 0.37 0.33 0.34 0.36 0.36 0.36 0.34 0.36 0.37 0.38 0.39 0.41 0.43 0.48 0.54 0.60 0.65 0.65 0.65 0.60 0.57 0.60 0.58 0.58 0.54 0.53 0.52 0.52 0.51 0.50 0.49 0.47 0.48 0.49 0.46 0.43 0.42 0.43 0.43 0.45 0.47 0.45 0.41 0.40 0.40 0.40 0.40 0.40 0.41 0.43 0.44 0.45 0.43 0.41 0.39 0.39 0.38 0.37 0.40 0.42 0.44 0.46 0.47 0.47 0.47
0.17 0.15 0.14 0.14 0.16 0.12 0.12 0.11 0.11 0.16 0.21 0.25 0.24 0.22 0.27 0.28 0.29 0.29 0.31 0.31 0.35 0.36 0.37 0.37 0.37 0.40 0.38 0.37 0.37 0.39 0.41 0.41 0.41 0.44 0.49 0.54 0.60 0.63 0.66 0.65 0.63 0.60 0.57 0.56 0.55 0.54 0.50 0.49 0.50 0.51 0.52 0.49 0.46 0.47 0.48 0.45 0.43 0.43 0.43 0.44 0.47 0.46 0.42 0.40 0.40 0.40 0.41 0.41 0.41 0.41 0.41 0.42 0.42 0.39 0.38 0.38 0.37 0.36 0.37 0.39 0.41 0.44 0.46 0.48 0.48 0.47
0.18 0.17 0.18 0.14 0.17 0.16 0.14 0.16 0.20 0.22 0.21 0.23 0.22 0.21 0.24 0.29 0.30 0.29 0.32 0.35 0.34 0.33 0.38 0.37 0.38 0.41 0.42 0.42 0.41 0.41 0.40 0.42 0.43 0.47 0.50 0.58 0.64 0.66 0.65 0.61 0.55 0.53 0.52 0.51 0.52 0.53 0.49 0.47 0.47 0.50 0.50 0.47 0.43 0.45 0.45 0.45 0.44 0.43 0.43 0.45 0.47 0.42 0.41 0.41 0.41 0.41 0.40 0.39 0.39 0.40 0.40 0.39 0.37 0.36 0.36 0.34 0.34 0.34 0.34 0.38 0.41 0.42 0.45 0.48 0.49 0.49
0.21 0.23 0.25 0.23 0.18 0.21 0.23 0.22 0.21 0.20 0.20 0.20 0.23 0.24 0.25 0.26 0.29 0.32 0.39 0.38 0.39 0.40 0.41 0.39 0.42 0.42 0.43 0.45 0.41 0.41 0.43 0.44 0.45 0.47 0.52 0.61 0.62 0.60 0.56 0.54 0.54 0.53 0.51 0.51 0.51 0.49 0.47 0.48 0.48 0.46 0.47 0.46 0.43 0.43 0.44 0.45 0.44 0.42 0.43 0.46 0.44 0.41 0.41 0.41 0.41 0.39 0.39 0.39 0.39 0.39 0.37 0.34 0.33 0.33 0.31 0.32 0.35 0.34 0.33 0.36 0.39 0.41 0.44 0.48 0.49 0.50
0.22 0.23 0.20 0.18 0.21 0.22 0.17 0.22 0.18 0.18 0.22 0.26 0.26 0.27 0.29 0.39 0.37 0.39 0.39 0.38 0.42 0.43 0.43 0.43 0.45 0.43 0.45 0.45 0.44 0.43 0.44 0.47 0.48 0.50 0.54 0.57 0.56 0.56 0.53 0.53 0.53 0.51 0.50 0.49 0.51 0.47 0.44 0.47 0.45 0.44 0.46 0.48 0.43 0.43 0.44 0.44 0.44 0.44 0.44 0.45 0.42 0.40 0.41 0.40 0.39 0.39 0.40 0.40 0.38 0.36 0.33 0.30 0.31 0.29 0.31 0.33 0.33 0.32 0.32 0.35 0.39 0.41 0.45 0.48 0.49 0.51
0.18 0.31 0.23 0.22 0.23 0.22 0.20 0.21 0.24 0.27 0.25 0.23 0.23 0.25 0.34 0.34 0.38 0.38 0.39 0.43 0.42 0.44 0.43 0.44 0.46 0.45 0.47 0.44 0.46 0.46 0.47 0.50 0.51 0.52 0.55 0.56 0.56 0.56 0.54 0.52 0.51 0.51 0.51 0.51 0.48 0.47 0.46 0.44 0.45 0.45 0.48 0.48 0.46 0.44 0.43 0.43 0.43 0.43 0.44 0.42 0.41 0.41 0.41 0.39 0.39 0.40 0.40 0.39 0.36 0.34 0.32 0.32 0.32 0.32 0.31 0.30 0.29 0.29 0.30 0.32 0.37 0.40 0.44 0.47 0.50 0.51
0.20 0.23 0.18 0.22 0.18 0.20 0.22 0.21 0.20 0.20 0.21 0.22 0.23 0.29 0.40 0.42 0.40 0.37 0.35 0.40 0.46 0.43 0.44 0.44 0.47 0.47 0.46 0.45 0.48 0.50 0.49 0.51 0.53 0.54 0.53 0.55 0.55 0.53 0.52 0.50 0.51 0.51 0.52 0.50 0.47 0.46 0.44 0.45 0.43 0.45 0.48 0.49 0.48 0.44 0.43 0.42 0.42 0.44 0.44 0.42 0.42 0.43 0.42 0.41 0.42 0.43 0.41 0.37 0.35 0.35 0.35 0.35 0.35 0.34 0.32 0.31 0.30 0.29 0.31 0.32 0.35 0.40 0.44 0.51 0.55 0.56
0.20 0.18 0.21 0.19 0.17 0.15 0.15 0.19 0.21 0.20 0.22 0.25 0.29 0.32 0.39 0.39 0.38 0.35 0.34 0.35 0.41 0.42 0.44 0.42 0.44 0.48 0.48 0.49 0.50 0.52 0.51 0.51 0.54 0.57 0.55 0.56 0.55 0.51 0.51 0.51 0.51 0.50 0.50 0.49 0.47 0.46 0.45 0.46 0.46 0.45 0.47 0.50 0.50 0.45 0.43 0.42 0.42 0.44 0.44 0.43 0.44 0.45 0.44 0.44 0.44 0.42 0.38 0.37 0.36 0.37 0.36 0.36 0.36 0.35 0.34 0.32 0.30 0.28 0.29 0.34 0.38 0.40 0.43 0.49 0.56 0.59
0.19 0.20 0.20 0.18 0.17 0.17 0.21 0.26 0.27 0.28 0.24 0.22 0.24 0.29 0.33 0.35 0.36 0.36 0.36 0.36 0.39 0.43 0.44 0.42 0.42 0.43 0.47 0.51 0.55 0.54 0.53 0.54 0.55 0.57 0.55 0.54 0.54 0.53 0.51 0.50 0.48 0.48 0.46 0.46 0.45 0.43 0.43 0.47 0.47 0.47 0.46 0.51 0.51 0.46 0.42 0.42 0.43 0.44 0.45 0.44 0.45 0.47 0.46 0.45 0.41 0.38 0.38 0.38 0.39 0.38 0.36 0.36 0.36 0.35 0.34 0.33 0.31 0.29 0.28 0.30 0.34 0.40 0.44 0.50 0.55 0.59
Wind_Speed
12 13 14 14 14 14 14 14 14 13 13 14 14 14 15 16 16 15 14 14 15 17 19 20 21 22 22 23 21 21 22 22 22 22 22 22 22 22 22 22 22 22 22 22 22 22 23 23 22 21 20 19 18 17 17 16 16 15 15 15 15 14 14 14 13 13 13 13 13 13 14 14 14 15 16 16 17 18 19 19 20 20 20 21 22 23
12 14 15 14 12 11 11 12 14 15 15 16 17 17 17 18 18 16 14 14 15 18 20 21 22 23 23 22 22 22 22 23 23 22 23 23 23 23 23 23 23 22 22 22 23 22 22 22 22 21 20 19 19 18 18 17 17 16 16 15 15 15 14 14 14 13 13 13 14 14 14 14 14 15 15 16 17 18 19 19 20 20 21 21 22 22
13 15 14 12 11 11 12 13 15 16 16 17 17 17 17 17 17 16 15 17 17 17 19 21 22 22 22 23 24 24 23 23 23 23 23 24 24 23 23 23 23 22 22 23 22 22 22 22 22 22 21 20 19 19 18 18 17 17 16 16 15 15 14 14 14 13 13 14 14 14 14 14 14 15 15 15 16 17 18 19 19 20 20 21 22 22
13 14 12 11 12 13 14 15 16 16 16 17 17 17 17 16 16 16 15 16 16 16 18 20 20 20 21 22 23 25 25 24 23 23 23 23 23 23 22 22 22 22 23 23 22 21 22 23 23 22 21 20 19 19 18 18 18 17 17 16 16 15 15 14 14 13 13 14 14 14 14 14 14 14 14 15 16 17 18 19 19 20 21 22 22 22
14 12 11 12 13 15 15 16 16 16 16 17 17 17 17 16 16 16 15 14 15 17 18 18 19 20 21 22 22 22 24 24 23 24 23 23 23 22 22 22 22 22 21 22 21 21 22 22 23 23 21 20 20 19 19 18 18 18 17 17 16 16 15 14 14 14 13 13 14 14 14 14 14 14 14 15 16 17 18 18 19 20 21 22 22 23
15 13 14 15 15 16 17 16 16 16 16 17 18 18 17 17 16 16 16 16 17 17 16 16 16 16 17 20 20 19 20 21 21 22 23 23 22 22 23 23 22 22 21 21 21 21 21 21 22 22 21 21 20 20 19 19 19 18 18 17 17 16 16 15 14 14 14 14 13 14 14 14 14 14 14 15 16 16 17 18 19 20 20 21 22 23
15 14 15 15 16 17 17 17 17 16 16 16 15 15 16 17 17 17 17 16 16 15 14 14 15 14 14 15 18 18 18 19 19 20 22 22 22 22 22 21 21 21 21 21 21 21 21 21 21 21 21 21 20 20 20 19 19 19 18 18 18 17 16 16 16 15 15 15 14 15 14 15 15 15 15 16 16 16 17 17 19 19 20 20 21 22
15 15 15 15 16 16 16 17 17 16 16 14 12 13 15 16 17 17 16 16 16 15 14 16 17 17 16 16 16 17 17 18 18 19 19 20 21 21 20 20 20 20 21 20 21 21 21 21 21 22 21 21 20 20 20 20 19 19 19 19 19 18 17 17 17 17 17 16 16 16 16 16 15 16 16 16 16 16 17 17 18 19 20 20 21 22
12 15 14 14 15 15 15 15 14 15 16 13 12 13 14 15 16 16 16 16 17 16 16 18 17 16 17 16 15 16 18 19 19 18 18 19 19 20 19 20 20 20 21 20 21 21 21 21 22 22 21 21 21 21 20 20 20 20 19 20 20 19 19 19 18 18 18 17 17 17 17 17 17 17 17 17 17 17 18 18 18 19 19 20 21 22
11 13 13 14 14 14 15 14 12 13 15 12 12 14 14 15 15 16 16 16 17 18 18 18 17 16 16 14 14 15 17 18 18 18 18 18 19 19 19 19 20 20 20 20 21 21 22 22 22 22 22 22 21 21 20 21 21 20 20 20 21 20 20 20 19 19 19 19 19 19 18 18 18 18 18 18 18 19 19 19 19 20 20 20 21 22
12 12 13 14 15 14 13 12 12 13 14 12 13 15 15 15 15 16 16 16 18 19 19 20 19 18 16 14 15 15 15 15 15 16 17 18 18 18 18 19 19 20 20 20 20 21 21 22 22 22 22 22 21 20 21 21 21 21 21 21 21 21 21 21 20 20 20 20 20 20 20 20 19 19 19 19 20 20 20 20 21 21 21 21 22 22
15 14 14 14 16 16 14 13 14 15 15 14 14 15 15 15 15 16 16 16 18 18 19 20 19 18 17 15 14 13 13 14 14 15 17 18 18 18 18 18 19 19 20 20 20 21 21 21 22 22 22 21 21 21 22 22 21 21 21 22 22 22 22 22 21 21 21 21 21 21 21 21 21 21 21 21 21 21 21 21 21 22 22 23 23 23
15 16 15 15 16 16 15 15 15 15 15 16 15 15 16 15 15 16 16 16 17 18 18 18 16 17 18 17 15 14 15 17 16 16 17 17 18 18 18 19 19 19 20 21 21 21 21 22 22 22 22 22 22 23 23 22 22 22 22 23 23 23 23 23 23 22 22 22 22 22 22 22 22 22 22 22 22 22 22 22 22 23 23 23 24 24
13 15 16 16 15 16 17 16 15 15 15 16 17 17 16 15 15 16 16 15 16 17 17 15 15 17 19 18 18 19 18 18 18 18 18 18 18 19 19 19 20 20 21 21 21 22 22 22 23 23 23 23 23 23 23 23 23 23 23 23 24 24 24 23 23 23 23 23 23 23 23 23 23 23 23 23 23 23 23 24 24 24 24 24 25 26
15 14 14 15 14 15 17 18 17 16 16 18 18 18 18 17 17 17 16 15 15 13 12 13 15 18 18 16 17 19 19 20 20 20 20 19 20 20 20 20 20 21 21 22 22 23 23 23 23 23 24 24 24 24 24 24 24 23 23 24 24 24 24 24 24 24 24 24 24 24 24 24 24 24 24 24 24 24 24 25 25 25 26 26 26 27
17 16 13 14 15 15 17 18 19 19 18 17 17 19 20 19 18 19 19 19 19 17 16 18 18 19 19 19 19 19 20 21 22 22 22 21 21 21 21 21 21 22 22 22 23 23 23 24 24 24 24 24 24 24 24 24 24 24 23 24 24 25 25 24 24 25 24 24 24 25 25 25 25 25 25 25 25 25 25 26 26 27 27 27 28 28
17 16 13 13 14 15 17 18 18 19 18 16 17 19 19 19 19 20 21 22 21 22 22 22 23 23 23 23 24 24 23 23 23 23 23 22 22 22 21 21 22 22 22 23 23 23 24 24 24 24 24 25 25 25 25 24 24 24 24 24 24 25 25 25 25 25 25 25 25 25 25 25 26 26 26 26 26 26 26 27 27 28 28 29 29 29
17 18 16 16 17 17 18 19 20 20 20 19 19 19 18 19 20 20 21 21 21 22 22 22 24 25 24 23 22 23 24 23 23 22 22 22 22 22 22 22 22 22 23 23 24 24 24 24 24 24 25 25 25 26 25 24 25 25 24 24 25 25 25 26 26 26 26 26 26 26 26 26 26 26 26 26 27 27 27 28 28 29 29 30 30 31
17 19 19 20 21 20 18 19 21 22 23 23 22 21 20 21 21 20 20 20 21 22 22 23 26 25 25 24 22 22 22 21 21 22 22 23 23 23 23 23 23 23 23 23 24 24 24 24 25 25 25 26 26 26 25 24 25 26 25 24 25 26 26 26 26 26 27 27 27 27 27 27 27 27 27 27 27 28 28 29 29 30 30 31 31 32
17 19 20 19 20 20 18 19 20 21 21 22 22 22 22 22 22 23 22 21 22 22 22 24 25 24 25 24 23 23 23 21 21 22 22 23 23 23 23 23 23 23 23 23 23 24 24 24 25 26 26 26 26 26 24 24 26 26 26 26 26 26 26 26 27 27 27 27 27 27 27 27 28 28 28 28 29 29 30 30 31 31 31 32 32 32
18 20 22 21 20 21 20 20 21 21 20 20 21 22 22 22 22 23 23 24 24 23 22 23 24 24 23 21 22 23 23 22 21 20 21 23 23 24 23 22 22 22 22 22 23 24 24 24 25 26 26 26 26 25 24 25 26 26 26 26 26 26 27 27 27 28 28 28 28 28 28 28 28 29 29 29 30 30 31 31 32 32 32 32 32 33
19 20 22 23 22 22 22 22 22 23 22 21 21 22 22 21 21 22 23 24 24 24 24 24 24 25 23 20 21 22 22 22 22 22 21 22 23 24 24 23 23 22 22 22 22 23 23 24 25 25 26 26 26 25 25 26 26 26 26 26 27 27 27 28 28 28 28 28 29 29 29 29 29 30 30 31 31 32 32 32 32 32 32 33 33 34
18 20 22 24 24 24 26 26 26 26 26 25 25 24 24 23 23 24 24 25 25 25 26 26 27 27 25 23 24 24 24 24 24 24 22 22 23 24 24 24 24 24 23 23 23 24 23 24 25 25 25 25 25 25 25 26 26 26 26 27 27 27 28 28 28 28 28 29 29 29 30 30 30 31 31 31 32 32 33 33 33 33 33 34 34 35
18 19 22 24 24 25 27 27 27 28 28 28 27 27 27 27 27 26 26 26 26 27 28 27 28 28 27 25 25 25 25 25 26 26 26 26 26 26 26 25 25 26 25 25 25 25 25 25 25 25 25 24 25 26 26 26 26 26 27 27 27 27 28 28 28 28 28 28 29 29 30 30 31 31 32 32 32 33 33 33 33 34 34 35 35 35
18 19 20 21 22 22 22 22 23 23 23 23 23 23 23 25 26 27 27 27 27 30 30 28 28 29 27 25 26 25 24 26 27 28 28 29 29 28 29 29 28 27 27 27 27 27 27 26 26 25 25 25 26 27 26 25 26 27 27 27 27 27 27 28 27 27 27 28 28 29 30 30 30 31 32 32 32 33 33 34 34 34 35 35 36 36
20 21 21 21 21 21 21 19 18 19 19 20 21 22 23 25 26 26 26 26 28 31 32 30 30 31 30 30 31 30 29 29 30 30 29 29 29 29 30 31 31 30 29 30 29 28 28 27 27 26 26 26 27 26 26 25 25 26 26 26 27 27 27 27 27 27 27 27 27 28 29 30 30 31 31 32 32 33 33 34 34 35 35 36 36 37
22 23 24 25 26 26 26 25 23 23 23 25 26 27 28 28 29 28 27 28 30 31 32 32 32 33 34 34 34 34 34 34 34 34 34 33 31 30 29 29 30 32 33 32 31 31 30 28 28 27 27 27 27 26 26 26 25 25 25 26 26 26 26 26 26 27 27 27 27 28 29 29 30 31 31 32 32 33 34 34 35 35 36 36 37 38
22 24 25 27 29 30 30 31 30 28 29 30 30 31 32 32 32 32 31 32 33 32 33 34 34 35 36 36 37 37 37 37 37 38 38 37 35 33 32 30 28 29 32 33 32 33 32 31 30 28 28 28 27 27 27 26 25 24 24 25 25 25 26 26 26 26 26 27 27 28 29 29 30 31 32 32 33 33 34 34 35 36 36 37 38 38
22 25 25 27 29 31 31 32 31 30 30 31 32 33 34 35 35 34 34 35 35 34 35 36 37 37 38 39 41 41 40 40 40 40 40 40 38 37 36 36 33 30 29 30 31 32 32 31 31 30 29 28 28 27 26 26 25 24 24 24 24 25 25 25 25 25 25 26 27 28 29 29 30 31 32 32 33 33 34 35 36 37 37 37 38 38
22 25 25 26 29 32 32 31 31 31 31 32 34 36 37 37 36 36 36 36 36 36 37 38 39 40 40 40 42 42 41 41 41 42 42 42 42 40 39 39 37 34 31 29 29 31 32 31 31 31 30 28 27 27 26 25 25 25 24 24 24 24 24 25 25 25 26 26 27 27 28 29 30 31 31 32 33 34 35 36 36 37 37 38 38 38
23 24 25 26 28 31 32 31 31 32 32 33 36 37 37 36 36 36 36 35 35 36 37 37 39 40 40 40 41 42 41 40 40 41 42 43 43 42 41 40 39 38 37 33 30 30 31 31 31 31 29 27 27 27 26 25 25 25 24 24 23 24 24 24 24 25 25 26 26 27 28 29 30 30 31 32 33 34 35 35 36 36 37 37 38 38
23 25 26 26 27 31 31 30 30 32 32 35 38 38 36 35 35 35 35 34 35 35 36 37 37 37 37 37 38 39 39 39 39 40 40 41 42 43 43 43 41 41 41 38 34 32 32 31 30 29 27 26 27 26 26 25 25 25 25 24 23 23 23 23 24 24 24 25 26 26 27 28 29 30 30 32 33 34 34 35 36 36 36 37 37 37
24 25 26 25 27 31 32 29 29 29 30 34 36 34 33 33 34 35 35 35 36 35 35 35 35 35 35 35 35 36 36 37 38 37 37 37 38 39 42 44 44 42 42 41 38 36 34 32 30 28 27 26 26 25 25 25 25 25 25 24 23 23 23 23 23 23 24 24 25 26 27 27 28 29 30 31 33 33 34 34 35 36 36 36 36 37
26 26 26 25 27 31 32 30 28 28 30 33 32 30 31 32 33 34 34 34 34 33 33 34 34 34 34 34 35 35 36 37 37 36 36 36 35 35 37 41 42 41 39 39 38 37 35 33 30 28 27 26 25 25 25 25 25 25 24 23 23 23 23 23 23 24 24 24 25 25 26 27 28 29 30 31 32 33 33 34 35 35 35 35 36 36
27 27 27 26 27 29 31 29 28 29 32 32 31 30 31 32 33 34 34 34 34 34 34 34 35 35 34 33 33 33 33 34 34 35 35 35 34 33 32 35 38 39 38 36 36 36 36 33 30 28 27 26 25 24 25 25 25 24 24 23 23 22 23 23 24 24 24 24 24 25 26 27 28 29 30 31 32 33 34 34 35 35 35 35 35 36
27 26 26 26 27 28 28 28 29 31 32 33 32 32 31 32 32 33 34 34 33 33 33 33 34 33 32 31 30 30 31 32 33 34 34 34 34 33 31 31 33 35 35 34 34 34 33 31 28 27 27 26 25 24 25 25 25 24 24 23 22 22 23 23 24 24 24 24 25 25 26 27 28 29 30 31 32 33 34 34 34 34 34 35 35 36
28 27 26 27 27 27 29 30 31 32 33 33 33 31 29 29 29 30 31 31 31 30 30 31 30 29 29 29 29 29 30 31 31 32 32 32 33 33 33 31 30 29 30 31 32 31 30 28 27 26 25 25 25 25 25 25 25 24 23 23 23 23 23 23 23 24 24 24 25 26 27 28 29 30 31 32 32 33 34 34 34 34 34 34 35 36
27 27 27 28 28 28 30 30 30 31 31 31 28 25 25 27 27 26 28 29 29 28 27 26 26 26 26 26 27 27 28 28 27 27 27 27 29 30 32 33 31 28 28 30 30 29 27 26 26 25 24 24 25 25 25 25 24 23 23 23 23 23 23 23 24 24 24 24 25 26 27 28 29 30 31 32 32 33 34 34 33 33 33 34 35 36
28 27 26 28 29 29 30 30 30 30 30 29 27 24 24 24 23 23 24 24 23 22 22 23 24 25 25 25 26 26 26 26 25 24 23 24 25 27 29 31 30 28 29 31 29 28 26 25 25 24 24 24 24 25 25 24 24 23 23 23 23 23 23 24 24 24 24 25 26 26 27 28 29 30 31 31 32 33 33 33 33 33 33 33 34 35
27 26 26 28 30 30 30 31 31 31 31 31 28 25 24 23 21 21 22 21 20 21 22 22 23 25 25 26 26 25 25 25 25 24 24 23 24 25 25 26 25 26 29 29 28 27 26 25 25 25 25 24 24 24 24 24 24 23 23 23 23 23 23 24 23 23 24 25 25 26 27 27 29 29 30 31 31 31 32 32 32 32 32 33 34 34
25 25 26 28 30 30 31 31 31 31 30 29 27 25 24 23 23 24 24 22 22 24 24 24 24 26 26 26 26 25 25 26 27 26 24 23 22 21 20 23 23 24 26 26 26 25 24 25 25 25 24 23 23 23 23 23 23 23 23 22 22 23 23 23 23 23 24 24 24 25 26 28 29 29 30 30 30 30 30 30 31 31 32 32 32 32
25 25 26 28 28 28 29 30 31 30 26 23 23 23 21 21 23 23 23 23 24 25 25 25 26 26 26 26 26 26 26 27 27 26 23 21 20 19 19 22 23 23 22 22 23 23 23 23 23 23 22 22 22 22 22 22 22 22 22 21 22 22 22 22 22 23 23 23 24 25 27 28 28 29 29 29 29 28 29 29 29 30 30 31 31 32
25 26 27 27 26 27 28 29 28 25 21 19 21 21 19 21 23 23 24 25 25 25 25 26 26 25 25 25 25 26 26 26 25 24 22 21 20 20 20 22 24 23 21 20 21 22 21 21 21 21 21 21 21 21 21 21 21 21 21 21 21 22 21 21 21 22 22 23 24 25 26 27 28 28 28 27 27 27 27 28 28 29 29 30 30 32
26 27 28 27 26 26 27 27 24 22 20 21 23 22 21 22 24 25 25 25 24 24 24 24 24 24 24 24 24 25 24 24 24 22 19 18 18 18 18 20 21 22 20 20 20 19 19 19 19 19 19 19 20 20 21 21 20 20 20 20 20 21 21 21 21 21 22 23 24 25 25 26 26 26 26 25 25 26 26 27 27 28 28 29 30 30
27 27 28 28 27 26 27 27 25 25 25 26 26 26 26 26 25 24 23 23 23 23 23 22 23 23 23 23 23 23 22 22 22 19 16 14 14 15 16 17 18 18 18 18 18 17 17 18 18 18 18 18 19 20 20 20 20 20 19 19 19 20 21 20 20 20 21 22 23 23 24 25 24 24 23 24 24 24 25 26 26 27 27 28 28 29
30 29 29 28 27 27 27 27 26 27 27 26 26 26 26 25 23 21 20 21 22 22 21 21 22 22 21 22 22 22 22 22 21 18 15 13 14 16 16 16 15 15 16 16 15 15 16 16 16 17 18 18 18 19 19 19 19 18 18 18 18 19 19 19 19 19 20 21 21 22 23 22 22 22 22 23 23 23 24 25 25 26 26 27 28 29
28 27 27 27 26 25 24 23 23 23 24 23 24 24 22 20 19 19 19 20 21 21 21 21 21 21 20 20 21 21 21 20 19 18 16 16 16 16 16 15 14 14 14 14 13 14 14 15 15 16 16 17 17 18 18 18 18 17 17 17 17 17 18 17 17 18 18 19 20 20 20 20 20 20 22 22 22 23 23 24 24 24 26 27 28 29
25 23 24 25 25 25 25 24 24 25 25 25 24 22 19 18 19 18 18 19 20 20 20 19 20 19 19 19 20 20 20 19 18 17 17 18 17 15 15 15 14 13 13 12 13 13 14 14 14 15 15 15 16 16 17 17 17 16 15 15 15 15 16 16 16 16 17 18 18 18 18 18 18 20 21 21 22 22 22 22 22 24 26 27 27 28
26 25 25 25 25 26 26 26 26 26 25 24 21 17 16 17 18 18 18 19 20 20 19 18 18 18 19 19 19 18 17 17 17 17 18 18 17 15 14 14 13 13 13 12 13 13 13 13 13 13 14 14 14 15 16 16 15 15 14 14 14 14 14 14 14 15 16 16 16 16 16 17 18 19 20 21 22 21 20 20 21 23 25 26 27 27
25 25 25 25 25 25 24 22 22 21 20 19 19 17 17 18 19 18 18 19 20 19 18 17 17 17 18 17 16 15 14 14 15 16 16 15 15 14 14 13 13 13 12 12 12 12 11 12 12 12 12 12 13 14 15 15 14 14 13 13 13 13 13 13 14 14 15 15 14 14 16 17 18 19 20 20 21 20 19 20 20 21 23 25 26 26
24 24 23 23 23 23 23 22 21 21 21 20 20 20 20 20 19 19 19 19 19 18 16 15 15 16 15 14 13 12 12 12 14 14 14 14 14 13 13 13 12 12 11 11 11 10 10 10 11 11 11 12 13 13 14 13 13 13 12 12 12 12 12 13 13 13 13 13 13 14 15 16 17 18 19 20 20 19 19 20 20 21 22 24 25 25
Wind_Direction
245 245 243 246 249 242 236 241 251 260 262 260 259 255 256 258 257 258 252 248 256 256 256 257 254 252 250 249 249 244 242 243 245 246 247 248 249 250 250 251 252 252 252 252 249 246 242 242 244 245 246 247 247 248 248 249 249 248 248 248 249 250 251 252 252 253 255 257 257 258 260 262 262 262 261 256 255 255 253 254 253 252 251 251 251 251
247 249 247 246 250 246 240 248 256 259 261 258 257 257 258 258 256 257 255 254 259 260 262 261 256 255 252 249 250 246 243 244 246 247 248 249 250 251 252 252 253 253 252 251 249 245 241 241 242 243 245 245 246 247 247 247 247 247 246 246 247 249 250 250 251 251 253 256 258 259 261 263 263 265 267 263 259 258 257 255 254 253 253 252 252 251
246 250 248 241 241 245 250 256 257 257 258 257 255 256 258 259 255 251 253 258 262 263 263 261 258 256 253 251 251 249 248 247 246 247 249 251 251 251 252 252 253 252 252 251 248 243 241 241 241 242 244 244 245 246 246 246 245 245 245 244 245 246 247 249 250 250 252 256 258 259 261 263 264 266 270 269 264 262 260 258 256 255 255 255 254 252
252 248 242 240 243 249 255 255 255 256 256 254 254 255 256 258 257 255 255 258 261 263 264 264 261 259 256 254 253 251 251 252 249 248 250 251 252 251 251 251 252 252 251 248 244 241 242 242 241 242 243 243 244 245 245 244 244 244 243 243 243 244 245 247 250 251 254 257 258 260 263 265 266 267 269 269 267 265 264 262 259 258 258 256 255 254
254 245 239 246 249 251 254 253 253 256 256 253 252 254 257 262 261 259 259 260 263 263 261 263 263 261 256 252 253 252 249 251 251 250 250 250 249 250 250 251 252 252 249 245 242 242 243 242 241 241 242 242 242 244 244 243 243 243 242 242 241 244 246 248 250 252 255 257 258 261 263 264 264 264 267 269 270 270 268 264 263 263 261 259 257 256
252 248 247 251 251 252 255 254 252 254 257 258 252 248 256 266 263 259 261 261 265 264 254 254 264 263 255 249 249 250 247 247 249 250 250 248 247 248 249 249 249 248 246 244 243 243 242 241 240 240 240 240 241 243 243 242 242 241 241 241 241 244 247 250 252 253 256 257 258 260 261 262 264 263 266 271 273 273 271 268 267 265 263 262 260 258
251 250 252 252 253 253 253 254 251 251 257 261 254 246 251 261 261 258 260 258 263 267 250 247 262 267 261 253 247 243 244 246 249 251 250 248 247 247 247 246 245 243 242 242 243 242 240 240 239 239 239 240 241 242 243 242 241 241 241 241 242 245 249 252 253 255 258 258 258 261 262 263 265 265 267 270 272 273 273 272 271 268 265 263 262 261
246 248 252 250 252 253 251 254 253 249 252 258 254 250 253 258 257 256 256 255 260 267 255 247 257 265 266 263 251 240 242 248 249 249 249 247 246 245 244 243 242 241 240 240 242 241 239 239 239 239 239 240 241 242 243 242 241 241 242 242 244 247 249 253 255 256 259 259 259 262 264 264 265 266 268 269 271 273 273 273 273 271 269 266 264 263
247 247 249 247 250 251 250 253 252 245 248 257 256 254 256 257 255 253 255 256 259 264 261 253 252 259 264 261 250 242 246 251 250 248 248 247 245 243 243 243 242 241 241 240 241 240 239 238 238 239 238 239 240 242 242 241 242 243 243 243 246 248 250 253 255 257 259 259 261 263 264 265 267 268 269 269 270 272 273 273 273 273 271 269 267 265
255 249 249 248 248 250 250 253 251 244 248 258 258 257 259 257 254 254 256 258 260 260 262 259 250 253 263 259 247 247 251 252 250 249 247 246 247 246 244 244 244 243 242 241 241 240 239 238 238 239 238 239 241 242 241 241 243 245 245 246 247 249 251 254 256 257 259 261 262 263 264 265 267 269 270 270 271 272 273 273 273 273 272 271 270 268
255 249 252 250 247 250 255 255 251 248 252 258 259 259 258 256 256 257 257 260 263 259 257 258 249 249 261 262 255 253 249 249 253 253 249 244 245 246 245 246 245 244 243 242 241 240 239 238 238 239 239 239 241 241 239 242 245 246 246 247 248 250 252 254 256 258 260 262 263 263 264 266 267 269 271 272 272 273 273 274 274 274 273 273 272 271
248 247 250 248 246 249 253 252 249 250 252 255 258 260 259 258 257 259 258 257 262 261 259 258 249 245 254 259 261 258 247 249 258 260 252 244 244 246 247 247 246 245 244 242 242 240 238 238 237 238 239 239 240 240 241 244 246 246 247 248 249 251 252 255 257 259 260 262 263 264 265 266 267 269 271 272 273 273 274 274 274 275 274 274 273 272
246 248 249 247 244 245 249 252 249 248 251 253 256 257 259 261 258 258 259 257 257 258 260 259 248 244 252 257 261 260 252 252 258 262 256 246 245 247 248 248 248 248 246 243 242 241 239 239 239 239 240 240 241 242 243 244 246 248 249 250 251 252 253 256 258 260 261 261 262 263 264 266 267 269 271 272 273 273 274 274 274 274 275 274 273 272
251 252 247 245 244 244 247 251 251 250 250 252 254 254 257 261 261 260 261 260 259 261 261 257 248 249 256 261 260 257 255 255 255 258 257 251 249 250 251 250 249 248 247 246 243 241 239 240 241 241 242 241 241 242 244 245 246 249 251 252 253 254 254 257 259 260 260 261 262 263 264 265 267 269 270 272 273 273 273 274 274 274 274 274 274 273
263 261 248 244 247 246 246 249 255 259 256 253 255 257 258 260 262 265 268 267 268 273 266 252 249 252 257 263 263 258 257 257 257 257 256 253 253 253 254 254 252 249 247 246 245 243 241 240 241 242 243 242 242 243 245 246 247 249 251 253 254 255 255 257 259 260 261 261 262 263 264 266 268 269 271 272 273 273 273 274 274 275 275 275 275 274
264 266 256 247 249 250 249 252 256 261 261 258 256 256 258 260 263 265 268 270 272 274 265 256 255 257 260 266 268 264 260 259 259 257 254 252 252 253 254 254 254 252 250 247 246 244 243 242 241 242 243 244 244 244 246 247 248 249 251 253 255 256 256 258 260 261 261 262 263 263 264 265 267 269 271 272 273 272 273 273 274 275 276 276 276 275
263 266 260 249 249 253 256 258 256 256 261 263 258 257 259 262 264 265 266 267 267 266 264 261 261 262 264 268 268 264 261 261 260 257 253 252 251 251 253 254 254 253 252 250 248 246 245 243 241 242 244 244 245 246 247 247 248 249 251 254 256 257 256 257 260 261 262 262 263 264 264 265 267 269 270 272 272 272 273 274 275 276 276 277 276 276
264 266 261 254 256 259 260 262 260 257 260 262 261 263 266 265 263 265 267 266 264 264 264 262 261 262 264 268 269 264 260 260 260 256 253 251 250 251 252 252 253 254 253 251 249 247 246 244 242 242 244 245 246 247 247 247 248 250 252 254 256 258 257 257 260 261 262 262 263 264 264 265 267 269 270 272 272 273 274 274 275 276 277 277 277 277
265 266 263 259 261 263 261 261 262 260 259 260 263 266 267 265 262 261 264 265 265 266 266 263 262 263 263 266 269 266 264 262 259 257 256 254 252 253 254 254 254 255 254 252 250 248 246 244 243 243 244 245 246 247 246 247 249 251 253 255 258 259 258 257 260 261 262 262 263 264 265 266 268 269 271 272 273 274 274 275 276 277 277 277 277 277
265 267 267 263 264 265 261 258 262 264 261 260 263 264 262 263 264 264 263 263 264 267 267 267 266 264 264 267 267 266 268 266 260 256 256 256 254 254 255 257 256 255 254 252 249 248 245 244 244 244 245 246 247 246 246 248 250 251 253 256 259 261 258 258 261 262 262 263 263 264 265 267 268 270 271 272 273 274 275 276 277 277 277 277 277 276
264 265 267 267 266 264 259 257 261 266 265 262 262 262 261 261 263 265 263 261 262 265 267 268 268 265 266 269 267 266 268 267 262 258 257 257 255 253 254 256 257 257 255 252 250 248 245 244 245 245 246 248 246 244 245 249 251 252 254 258 261 262 260 260 262 263 263 264 264 265 265 267 268 269 271 272 273 275 276 276 277 277 277 276 275 275
265 264 266 268 266 262 260 260 263 266 267 266 266 265 265 265 265 265 264 262 261 263 266 267 268 267 267 270 270 269 270 267 264 264 262 259 255 254 255 255 256 257 255 252 250 248 246 245 245 246 247 247 244 243 246 251 254 254 256 259 262 263 261 261 263 264 264 264 265 265 266 267 268 269 271 273 274 275 276 277 277 277 276 275 275 275
268 266 267 268 266 265 265 265 266 266 267 267 266 265 266 267 267 266 267 268 267 266 267 267 267 267 268 270 272 272 270 267 265 265 265 263 259 257 256 256 256 256 255 253 250 249 248 247 246 247 247 244 243 246 250 254 254 255 258 261 263 263 263 263 264 264 264 264 265 265 266 267 268 270 272 273 275 276 276 277 277 276 276 276 276 275
270 267 267 269 269 268 268 267 265 265 265 265 264 264 264 264 265 267 269 270 269 267 267 267 267 267 268 270 271 271 270 268 266 266 266 268 265 259 257 258 257 255 255 255 253 250 249 248 248 248 246 243 247 251 253 254 254 256 260 262 263 264 263 263 264 264 264 265 266 266 267 268 270 271 273 274 276 276 277 277 276 276 276 276 276 275
272 269 269 272 273 272 270 268 266 264 263 264 265 266 265 265 266 268 269 268 266 265 265 266 267 268 269 270 270 272 273 272 270 269 269 269 266 259 258 259 257 255 255 254 253 250 249 248 248 248 247 248 252 254 253 254 256 258 261 262 263 264 263 263 264 264 264 265 266 267 269 270 271 272 274 275 276 277 277 277 277 277 277 277 277 276
271 269 269 270 270 271 270 269 271 273 269 267 269 269 268 267 267 268 270 268 266 266 266 266 268 270 270 270 270 272 273 273 272 271 271 271 268 265 263 259 255 254 254 253 251 248 248 248 247 249 251 253 255 255 253 255 257 260 262 262 263 264 263 263 263 264 265 266 267 269 270 271 272 273 274 276 276 277 277 278 278 278 277 278 277 277
270 268 267 266 266 268 270 271 275 278 275 272 273 271 269 268 267 268 269 267 268 271 269 267 270 272 272 271 271 271 272 272 271 270 271 271 269 268 267 263 260 257 253 250 249 247 245 246 247 249 251 253 255 254 254 256 258 259 261 262 263 264 263 263 264 265 266 267 268 269 270 271 273 274 276 276 277 278 278 278 278 278 278 278 278 277
269 268 266 265 266 267 270 272 275 276 274 273 273 272 270 270 269 268 267 268 271 272 270 269 272 273 272 272 272 273 273 272 271 271 270 268 267 266 264 263 264 262 255 250 248 246 243 244 246 247 249 252 253 253 254 258 259 259 260 262 262 262 263 264 265 265 266 268 269 270 271 272 274 275 276 277 278 279 279 279 279 279 279 278 277 276
268 269 268 268 268 269 270 272 273 274 273 273 273 272 271 271 270 268 268 269 270 270 271 273 274 273 272 273 273 273 274 273 272 271 269 267 265 263 260 259 260 260 257 253 249 244 242 243 245 246 249 251 251 252 255 258 258 258 259 261 261 261 263 264 265 265 267 268 269 271 272 273 275 276 277 278 278 279 280 280 280 280 280 279 278 277
267 270 270 270 271 272 272 272 273 274 274 273 273 272 271 271 270 269 269 270 270 270 272 274 273 273 273 274 275 275 275 274 272 270 268 265 262 260 258 256 254 252 253 256 253 247 243 243 245 247 249 249 248 251 255 256 256 257 259 259 259 260 262 263 265 266 268 269 270 271 273 274 275 277 278 278 279 280 281 281 281 281 280 280 279 278
269 271 272 273 274 273 273 274 274 274 274 274 273 272 272 272 271 271 271 272 272 272 272 273 273 273 274 274 275 275 274 273 272 270 267 264 261 258 256 254 250 248 249 252 253 251 247 244 245 246 245 244 247 251 254 255 256 257 258 257 258 259 261 263 265 267 269 270 271 273 274 276 277 277 278 279 281 282 282 282 282 282 281 280 280 279
270 272 274 275 274 274 275 275 275 275 275 274 273 273 273 273 273 273 272 272 272 273 273 273 272 273 275 276 275 274 274 273 272 270 268 265 261 258 255 252 250 248 248 248 249 250 249 246 243 241 240 242 247 250 252 255 256 257 257 257 258 260 261 263 266 267 269 271 273 275 276 277 278 279 279 281 283 284 284 283 283 282 282 282 281 280
270 272 274 273 273 276 277 277 277 278 275 273 274 276 275 274 273 272 272 272 271 272 273 273 273 275 276 276 275 274 274 273 272 270 269 267 264 260 257 252 249 248 247 246 245 246 246 244 240 237 240 244 247 249 251 254 256 256 257 257 258 260 261 263 266 268 271 273 275 277 278 279 279 280 281 284 285 285 285 285 284 284 283 283 282 281
270 271 273 273 273 276 278 279 278 274 271 274 279 280 277 275 274 273 273 273 272 271 271 273 275 276 275 275 275 275 275 273 272 271 270 268 265 262 260 255 249 246 245 245 243 243 241 238 235 236 241 245 247 249 252 254 255 256 256 257 258 260 262 264 267 270 273 275 277 279 280 280 281 282 283 285 286 286 286 286 286 285 285 284 283 281
270 271 272 272 273 275 278 278 273 269 272 278 282 280 277 278 277 275 275 273 273 273 273 274 274 274 275 276 276 277 277 276 274 272 271 268 264 259 259 257 251 245 244 245 243 240 235 231 232 237 242 245 248 251 253 254 255 255 255 256 258 260 263 265 268 272 275 277 279 280 281 281 282 283 285 287 287 288 288 288 287 286 285 284 283 282
268 270 272 272 272 274 275 272 270 274 279 281 281 280 280 279 277 277 276 274 274 275 275 274 275 274 275 276 276 277 279 278 275 272 268 266 264 258 254 256 252 244 242 243 238 230 226 226 231 238 243 246 249 251 253 253 253 254 254 256 258 261 264 266 270 274 276 278 280 281 282 283 284 285 286 288 288 289 289 289 288 287 286 285 284 284
266 268 271 271 270 272 273 272 274 279 280 281 282 282 280 279 278 277 276 275 275 274 274 275 276 276 276 276 277 280 282 280 275 271 268 265 263 257 250 250 252 245 239 234 226 219 220 226 234 240 244 246 248 251 253 252 251 252 254 256 259 262 264 267 271 276 278 279 281 282 284 285 286 286 287 288 289 290 290 289 288 287 286 286 285 285
266 268 270 270 270 272 274 275 278 278 278 282 284 282 281 282 280 278 276 276 276 274 274 274 274 275 276 278 280 281 282 281 275 271 271 268 264 259 251 248 249 244 233 223 216 217 224 232 238 242 244 246 248 250 252 252 250 250 252 256 260 262 265 268 273 277 280 282 283 284 285 286 287 288 289 289 290 291 290 289 288 287 287 287 287 287
269 270 269 269 270 272 273 275 276 276 279 284 284 280 281 283 281 279 278 277 278 277 276 274 273 274 276 279 281 281 280 279 275 273 275 273 269 266 256 247 244 235 223 217 217 222 229 235 240 243 245 247 248 249 250 250 249 250 252 256 259 263 266 270 274 280 283 284 284 285 286 287 288 289 290 291 292 292 290 289 288 287 288 288 288 288
272 271 270 269 270 272 272 274 276 277 280 283 281 278 277 276 275 274 274 276 278 278 277 277 277 277 278 279 280 278 277 277 276 277 277 273 272 269 253 238 231 223 215 217 222 227 234 239 242 245 246 246 246 247 248 248 247 249 253 256 259 263 267 271 277 282 284 284 285 286 287 289 290 290 292 293 293 292 291 290 289 289 289 290 289 289
275 273 271 272 272 272 272 274 277 279 280 280 280 278 276 274 271 268 270 277 281 278 278 279 278 278 279 279 278 276 277 277 276 277 276 270 269 266 244 226 222 221 218 221 226 231 238 241 242 244 245 244 245 245 245 244 245 248 252 256 260 264 268 273 279 283 284 285 286 287 289 290 291 292 294 294 293 292 291 291 290 291 291 292 291 290
278 276 275 275 274 273 274 276 279 280 278 277 279 279 275 272 270 268 272 279 282 281 281 281 279 279 280 278 277 276 277 277 275 274 273 267 263 256 238 224 222 222 223 225 229 233 237 239 240 241 242 242 243 242 241 241 244 248 253 257 261 265 270 276 280 282 283 285 287 288 289 291 292 294 294 294 292 292 292 292 292 293 294 293 293 293
279 279 278 277 276 276 275 275 277 279 276 273 276 277 271 269 272 275 276 278 280 283 284 281 278 280 280 278 277 277 276 275 273 270 269 267 260 248 235 225 220 220 224 230 231 231 234 237 238 238 238 239 240 240 239 241 244 248 252 257 261 266 272 277 280 282 284 286 288 289 290 292 294 295 294 293 293 293 294 295 295 296 296 295 294 295
278 277 278 279 278 276 274 272 274 277 277 274 275 275 273 273 276 278 277 277 279 281 283 282 279 279 279 278 277 276 274 273 270 266 268 269 258 240 226 219 216 219 225 230 229 229 232 235 236 236 237 238 239 239 240 241 244 247 252 256 261 267 273 278 280 282 285 287 288 290 292 294 296 295 295 295 295 296 297 298 298 298 298 297 297 297
279 278 279 279 278 275 273 272 273 276 278 277 275 274 275 276 277 276 275 277 279 278 278 280 281 279 277 277 277 274 273 271 265 262 265 263 243 224 215 213 214 218 224 227 228 229 232 233 234 236 237 238 238 239 240 241 244 247 251 256 262 268 274 277 279 282 286 288 291 294 296 297 297 297 297 298 298 299 300 300 300 301 301 301 300 300
279 279 278 278 278 276 272 271 272 274 276 278 277 275 275 276 274 272 273 278 281 280 276 277 281 281 279 278 276 273 271 267 259 256 256 245 226 219 218 218 218 220 221 223 226 229 231 232 233 235 237 238 238 238 239 241 243 246 250 257 263 269 274 276 279 283 287 291 295 298 299 300 300 300 300 300 300 302 303 303 302 303 304 305 304 303
280 280 278 276 275 273 270 271 274 276 277 279 278 276 275 273 269 268 272 278 280 280 279 279 282 283 281 278 276 272 268 262 254 249 244 235 229 228 227 223 222 222 222 223 225 227 231 233 234 235 237 238 239 238 238 241 244 246 253 259 263 268 273 277 281 284 288 294 299 301 302 302 302 303 304 304 304 305 305 304 304 305 307 308 308 307
280 279 276 273 270 267 267 270 273 275 277 278 278 276 273 270 269 268 271 277 280 280 280 281 282 282 281 280 276 269 262 254 247 239 233 230 231 232 228 223 222 223 224 226 227 229 232 235 236 236 236 238 240 238 237 240 244 247 252 258 262 267 274 279 282 286 292 299 302 304 304 304 305 306 307 309 308 307 306 306 306 307 309 311 311 312
277 273 272 271 269 267 268 270 271 272 275 276 274 271 269 269 271 271 269 275 282 284 281 280 281 282 282 280 275 266 255 245 237 230 228 230 231 229 226 223 222 224 227 229 230 233 237 238 238 237 235 236 240 239 235 238 243 246 250 257 263 268 273 278 282 289 297 301 303 307 308 307 308 310 312 312 312 311 309 308 308 310 312 314 315 316
275 272 271 270 268 267 268 270 269 268 272 273 271 270 271 272 273 272 270 274 281 283 281 279 281 283 283 279 271 261 249 237 228 225 226 227 225 222 221 221 223 225 228 229 229 233 238 239 239 238 234 233 237 236 232 234 240 244 248 256 261 266 272 277 284 292 298 301 305 311 314 313 313 314 315 316 316 314 311 310 312 314 316 318 319 319
272 271 271 269 268 267 267 268 267 267 271 274 273 274 274 273 272 272 272 274 276 278 279 279 280 284 284 276 265 256 245 230 224 224 224 222 221 221 223 224 224 224 225 225 227 231 235 235 235 232 229 229 231 231 230 233 238 242 247 254 259 265 273 281 288 294 299 304 309 314 317 318 319 319 319 319 318 316 315 315 317 319 320 321 323 324